1485266400.98,13231,11.94,73356.5,-4.21,-43.95,-43.95,0,*55
1485266402.22,13232,11.94,73356.0,-4.21,-43.61,-43.81,0,*58
1485266403.48,13233,12.0,73358.5,-4.21,-44.47,-44.67,0,*55
1485266404.73,13234,11.94,73358.3,-4.23,-44.79,-44.99,0,*5C
1485266405.94,13235,12.0,73356.5,-4.21,-44.61,-44.79,0,*58
1485266407.21,13236,12.0,73356.3,-4.23,-44.99,-45.27,0,*54
1485266408.46,13237,12.0,73356.5,-4.23,-44.87,-44.87,0,*51
1485266409.72,13238,12.0,73356.0,-4.27,-44.53,-44.47,0,*5F
1485266410.95,13239,12.0,73362.0,-4.25,-44.01,-44.07,0,*5F
1485266412.21,13240,12.0,73360.5,-4.25,-44.47,-44.47,0,*57
1485266413.45,13241,11.94,73358.8,-4.25,-44.21,-44.27,0,*50
1485266414.71,13242,12.0,73358.0,-4.25,-43.81,-44.01,0,*5A
1485266415.97,13243,12.0,73356.5,-4.25,-44.47,-44.47,0,*54
1485266417.2,13244,12.0,73354.5,-4.25,-44.53,-44.67,0,*54
1485266418.44,13245,12.0,73358.0,-4.25,-44.21,-44.27,0,*54
1485266419.71,13246,11.94,73356.3,-4.27,-44.01,-44.07,0,*55
1485266420.93,13247,11.94,73354.3,-4.25,-43.49,-43.61,0,*5A
1485266422.17,13248,12.0,73358.8,-4.25,-43.29,-43.41,0,*51
1485266423.43,13249,12.0,73358.5,-4.25,-43.21,-43.29,0,*56
1485266424.69,13250,12.0,73358.8,-4.23,-43.21,-43.35,0,*55
1485266425.95,13251,11.94,73358.3,-4.23,-43.15,-43.21,0,*56
1485266427.21,13252,12.0,73358.3,-4.23,-43.15,-43.21,0,*55
1485266428.42,13253,12.0,73356.8,-4.21,-43.15,-43.15,0,*51
1485266429.66,13254,12.0,73362.3,-4.21,-43.35,-43.55,0,*50
1485266430.91,13255,12.0,73360.3,-4.21,-43.55,-43.75,0,*55
1485266432.13,13256,12.0,73360.5,-4.21,-43.35,-43.41,0,*57
1485266433.37,13257,11.94,73356.3,-4.23,-43.75,-43.95,0,*59
1485266434.63,13258,11.94,73356.0,-4.23,-43.75,-43.81,0,*53
1485266435.89,13259,12.0,73358.5,-4.23,-43.55,-43.61,0,*5E
1485266437.11,13260,12.0,73360.0,-4.21,-43.35,-43.41,0,*52
1485266438.36,13261,12.0,73356.8,-4.21,-43.09,-43.15,0,*5D
1485266439.58,13262,12.0,73362.5,-4.21,-43.41,-43.61,0,*51
1485266440.82,13263,11.94,73358.5,-4.23,-43.41,-43.61,0,*52
1485266442.06,13264,11.94,73356.8,-4.23,-43.35,-43.41,0,*54
1485266443.28,13265,12.0,73358.5,-4.21,-43.15,-43.35,0,*56
1485266444.55,13266,12.0,73362.0,-4.19,-43.01,-43.09,0,*54
1485266445.8,13267,12.0,73360.5,-4.17,-43.09,-43.01,0,*5B
1485266447.07,13268,12.0,73358.8,-4.17,-42.83,-42.95,0,*5B
1485266448.31,13269,12.0,73362.0,-4.19,-43.01,-43.01,0,*53
1485266449.55,13270,12.0,73360.5,-4.19,-43.87,-44.07,0,*54
1485266450.78,13271,12.0,73362.5,-4.17,-43.81,-43.87,0,*52
1485266451.99,13272,12.0,73360.0,-4.17,-43.87,-44.07,0,*58
1485266453.25,13273,11.94,73356.0,-4.19,-43.67,-43.87,0,*56
1485266454.5,13274,12.0,73362.3,-4.19,-43.75,-43.95,0,*51
1485266455.76,13275,12.0,73360.0,-4.19,-43.55,-43.75,0,*5C
1485266457.03,13276,12.0,73360.3,-4.19,-43.49,-43.55,0,*50
1485266458.3,13277,12.0,73356.3,-4.19,-43.29,-43.49,0,*5A
1485266459.54,13278,12.0,73362.8,-4.17,-43.21,-43.41,0,*5B
1485266460.8,13279,12.0,73362.8,-4.17,-43.21,-43.29,0,*54
1485266462.07,13280,12.0,73360.3,-4.17,-43.21,-43.29,0,*52
1485266463.34,13281,12.0,73362.5,-4.17,-43.09,-43.09,0,*5B
1485266464.58,13282,12.0,73360.3,-4.17,-43.01,-43.21,0,*5A
1485266465.86,13283,12.0,73362.0,-4.17,-43.09,-42.95,0,*5D
1485266467.13,13284,12.0,73358.8,-4.15,-42.95,-43.01,0,*50
1485266468.39,13285,12.0,73356.5,-4.15,-42.83,-43.01,0,*56
1485266469.69,13286,12.0,73358.5,-4.15,-42.95,-42.95,0,*5E
1485266470.93,13287,12.0,73356.3,-4.13,-43.61,-43.81,0,*57
1485266472.19,13288,12.0,73360.3,-4.15,-43.87,-44.01,0,*59
1485266473.44,13289,12.0,73358.5,-4.15,-44.27,-44.27,0,*51
1485266474.73,13290,12.0,73358.5,-4.15,-43.67,-43.81,0,*51
1485266476.01,13291,12.0,73358.3,-4.15,-43.21,-43.29,0,*50
1485266477.29,13292,12.0,73356.3,-4.15,-43.61,-43.67,0,*5D
1485266478.55,13293,12.0,73360.5,-4.15,-43.61,-43.81,0,*54
1485266479.82,13294,12.0,73358.3,-4.15,-44.07,-44.21,0,*59
1485266481.09,13295,12.0,73358.8,-4.15,-44.53,-44.73,0,*5E
1485266482.37,13296,12.0,73360.3,-4.15,-44.33,-44.47,0,*5C
1485266483.66,13297,12.0,73358.8,-4.15,-44.21,-44.21,0,*5E
1485266484.95,13298,12.0,73356.5,-4.15,-43.81,-44.01,0,*5E
1485266486.19,13299,12.0,73356.8,-4.17,-44.07,-44.21,0,*56
1485266487.42,13300,12.0,73358.8,-4.17,-44.27,-44.27,0,*53
1485266488.68,13301,12.0,73358.3,-4.17,-43.67,-43.81,0,*5A
1485266489.92,13302,12.0,73360.3,-4.17,-43.29,-43.41,0,*5F
1485266491.19,13303,12.0,73362.5,-4.17,-43.21,-43.29,0,*58
1485266492.41,13304,12.0,73360.5,-4.17,-43.49,-43.61,0,*5D
1485266493.63,13305,12.0,73356.5,-4.17,-43.41,-43.49,0,*5E
1485266494.91,13306,12.0,73358.8,-4.15,-43.21,-43.29,0,*5F
1485266496.15,13307,12.0,73358.5,-4.13,-43.35,-43.55,0,*56
1485266497.4,13308,12.0,73358.8,-4.15,-43.61,-43.87,0,*51
1485266498.66,13309,12.0,73356.0,-4.15,-44.01,-44.07,0,*5E
1485266499.93,13310,12.0,73354.5,-4.15,-43.29,-43.49,0,*56
1485266501.19,13311,12.0,73358.8,-4.15,-43.29,-43.49,0,*57
1485266502.49,13312,12.0,73358.0,-4.15,-43.09,-43.29,0,*50
1485266503.76,13313,12.0,73356.5,-4.15,-43.61,-43.67,0,*55
1485266505.03,13314,12.0,73356.5,-4.15,-43.61,-43.81,0,*5A
1485266506.27,13315,12.0,73356.5,-4.15,-43.41,-43.41,0,*55
1485266507.5,13316,12.0,73360.5,-4.13,-43.01,-43.01,0,*50
1485266508.74,13317,12.0,73356.3,-4.13,-42.89,-42.95,0,*5C
1485266509.99,13318,12.0,73358.5,-4.13,-42.89,-42.95,0,*53
1485266511.28,13319,12.0,73360.3,-4.15,-43.09,-43.21,0,*53
1485266512.53,13320,12.0,73358.0,-4.13,-42.95,-43.01,0,*59
1485266513.77,13321,12.0,73356.8,-4.11,-43.01,-43.35,0,*51
1485266515.04,13322,12.0,73358.3,-4.11,-43.41,-43.55,0,*50
1485266516.25,13323,12.0,73356.5,-4.09,-43.15,-43.15,0,*5D
1485266517.47,13324,12.0,73358.3,-4.13,-43.01,-43.15,0,*54
1485266518.71,13325,12.0,73360.3,-4.09,-42.95,-43.01,0,*57
1485266519.92,13326,12.0,73356.8,-4.09,-42.75,-42.89,0,*5B
1485266521.19,13327,12.0,73356.0,-4.11,-42.95,-42.89,0,*5D
1485266522.43,13328,12.0,73358.5,-4.09,-42.89,-42.95,0,*5B
1485266523.64,13329,12.0,73356.5,-4.09,-42.75,-42.89,0,*54
1485266524.87,13330,12.0,73358.3,-4.11,-42.89,-42.89,0,*56
1485266526.1,13331,12.0,73362.0,-4.09,-43.15,-43.21,0,*59
1485266527.35,13332,12.0,73356.8,-4.05,-43.09,-43.15,0,*5C
1485266528.59,13333,12.0,73360.0,-4.05,-42.83,-42.89,0,*5A
1485266529.83,13334,12.0,73362.5,-4.05,-42.89,-42.95,0,*5A
1485266531.07,13335,12.0,73362.0,-4.03,-42.75,-42.83,0,*59
1485266532.28,13336,12.0,73358.5,-4.03,-42.89,-43.01,0,*52
1485266533.52,13337,12.0,73362.3,-4.03,-42.83,-42.75,0,*5B
1485266534.79,13338,12.0,73362.5,-4.05,-43.09,-43.29,0,*59
1485266536.03,13339,12.0,73360.5,-4.03,-43.29,-43.41,0,*52
1485266537.25,13340,12.0,73358.8,-4.03,-43.41,-43.49,0,*5A
1485266538.46,13341,12.0,73362.5,-4.05,-43.95,-44.07,0,*59
1485266539.68,13342,12.0,73360.8,-4.03,-43.95,-43.95,0,*50
1485266540.89,13343,12.0,73360.3,-4.03,-43.01,-43.01,0,*51
1485266542.11,13344,12.0,73362.0,-4.03,-42.89,-43.01,0,*57
1485266543.38,13345,12.0,73358.5,-4.05,-42.95,-43.09,0,*55
1485266544.59,13346,12.0,73358.5,-4.03,-42.89,-42.89,0,*54
1485266545.8,13347,12.0,73360.3,-4.03,-42.89,-42.89,0,*55
1485266547.08,13348,12.0,73360.3,-4.01,-42.83,-42.83,0,*58
1485266548.37,13349,12.0,73362.5,-4.01,-42.83,-42.83,0,*59
1485266549.64,13350,12.0,73362.3,-4.01,-42.89,-43.09,0,*58
1485266550.88,13351,12.0,73358.8,-3.99,-43.01,-43.21,0,*54
1485266552.15,13352,12.0,73358.3,-4.01,-43.01,-43.09,0,*5B
1485266553.37,13353,12.0,73358.0,-3.99,-43.15,-43.41,0,*55
1485266554.6,13354,12.0,73360.0,-3.99,-43.15,-43.21,0,*54
1485266555.87,13355,12.0,73358.5,-4.01,-43.29,-43.41,0,*5A
1485266557.14,13356,12.0,73358.3,-3.99,-42.95,-43.21,0,*5F
1485266558.39,13357,12.0,73358.5,-3.99,-42.95,-43.01,0,*5C
1485266559.62,13358,12.0,73360.5,-4.01,-43.87,-43.87,0,*59
1485266560.83,13359,12.0,73356.8,-3.99,-43.35,-43.41,0,*5D
1485266562.07,13360,12.0,73362.3,-3.99,-43.21,-43.35,0,*51
1485266563.34,13361,12.0,73360.5,-4.01,-43.21,-43.41,0,*55
1485266564.58,13362,12.0,73360.5,-3.99,-43.01,-43.21,0,*54
1485266565.8,13363,12.0,73356.8,-3.99,-43.75,-43.75,0,*57
1485266567.04,13364,12.0,73358.5,-3.97,-43.35,-43.41,0,*5D
1485266568.28,13365,12.0,73360.0,-3.99,-43.15,-43.21,0,*56
1485266569.53,13366,12.0,73362.0,-4.01,-43.01,-43.01,0,*54
1485266570.77,13367,12.0,73362.0,-3.99,-42.95,-43.01,0,*5F
1485266571.99,13368,12.0,73356.5,-3.99,-43.15,-43.35,0,*5E
1485266573.23,13369,12.0,73356.8,-4.01,-43.49,-43.61,0,*51
1485266574.44,13370,12.0,73362.0,-3.99,-43.15,-43.35,0,*57
1485266575.72,13371,12.0,73362.0,-3.97,-42.95,-43.15,0,*53
1485266576.97,13372,12.0,73360.0,-3.97,-43.01,-43.01,0,*59
1485266578.23,13373,12.0,73362.8,-3.97,-43.21,-43.35,0,*5D
1485266579.48,13374,12.0,73360.3,-3.97,-43.35,-43.41,0,*5C
1485266580.73,13375,12.0,73360.5,-3.97,-43.01,-43.15,0,*5B
1485266581.97,13376,12.0,73364.0,-3.97,-43.15,-43.15,0,*5D
1485266583.21,13377,12.0,73358.5,-3.97,-43.01,-43.15,0,*59
1485266584.48,13378,12.0,73362.8,-3.97,-43.21,-43.41,0,*55
1485266585.73,13379,12.0,73360.5,-3.97,-43.01,-43.15,0,*57
1485266586.98,13380,12.0,73362.8,-3.97,-43.61,-43.75,0,*51
1485266588.27,13381,12.0,73360.0,-3.97,-43.55,-43.55,0,*55
1485266589.51,13382,12.0,73360.8,-3.95,-43.95,-44.01,0,*5E
1485266590.75,13383,12.0,73362.5,-3.97,-43.61,-43.75,0,*52
1485266592.02,13384,12.0,73362.3,-3.97,-43.15,-43.21,0,*57
1485266593.29,13385,12.0,73360.0,-3.97,-42.95,-43.01,0,*5D
1485266594.58,13386,12.0,73358.0,-3.97,-42.95,-42.83,0,*55
1485266595.82,13387,12.0,73358.0,-3.95,-42.89,-42.95,0,*5C
1485266597.03,13388,12.0,73356.5,-3.95,-42.89,-42.89,0,*5E
1485266598.24,13389,12.0,73360.5,-3.95,-42.89,-42.89,0,*5F
1485266599.5,13390,12.0,73360.5,-3.95,-43.29,-43.29,0,*57
1485266600.79,13391,12.0,73360.0,-3.93,-43.09,-43.29,0,*52
1485266602.07,13392,12.0,73356.8,-3.93,-43.29,-43.29,0,*53
1485266603.33,13393,12.0,73358.0,-3.91,-42.83,-42.83,0,*50
1485266604.61,13394,12.0,73360.8,-3.93,-42.69,-42.69,0,*55
1485266605.84,13395,12.0,73356.5,-3.91,-42.63,-42.57,0,*51
1485266607.11,13396,12.0,73358.8,-3.93,-42.69,-42.75,0,*5A
1485266608.36,13397,12.0,73356.8,-3.91,-42.69,-42.83,0,*50
1485266609.59,13398,12.0,73360.3,-3.91,-42.89,-42.83,0,*51
1485266610.86,13399,12.0,73358.8,-3.93,-43.75,-43.67,0,*5B
1485266612.06,13400,12.0,73358.0,-3.91,-43.87,-44.07,0,*52
1485266613.31,13401,12.0,73358.3,-3.91,-43.61,-43.67,0,*5A
1485266614.54,13402,12.0,73356.8,-3.91,-43.29,-43.49,0,*59
1485266615.78,13403,12.0,73356.8,-3.93,-43.75,-43.75,0,*5C
1485266617.01,13404,12.0,73360.8,-3.93,-43.75,-43.87,0,*56
1485266618.25,13405,12.0,73358.8,-3.91,-43.81,-43.95,0,*5D
1485266619.48,13406,12.0,73356.5,-3.91,-44.01,-44.07,0,*5D
1485266620.75,13407,12.0,73362.3,-3.93,-44.01,-43.95,0,*52
1485266621.96,13408,12.0,73362.3,-3.91,-43.61,-43.49,0,*5F
1485266623.25,13409,12.0,73360.3,-3.93,-43.67,-43.55,0,*57
1485266624.48,13410,12.0,73360.0,-3.93,-43.35,-43.49,0,*55
1485266625.78,13411,12.0,73356.5,-3.93,-42.95,-43.09,0,*5B
1485266627.01,13412,12.0,73358.0,-3.91,-42.89,-42.83,0,*54
1485266628.3,13413,12.0,73360.0,-3.93,-43.09,-43.29,0,*5F
1485266629.56,13414,12.0,73362.8,-3.93,-43.29,-43.35,0,*57
1485266630.77,13415,12.0,73360.5,-3.91,-42.89,-43.01,0,*58
1485266632.03,13416,12.0,73356.0,-3.91,-43.09,-43.21,0,*50
1485266633.26,13417,12.0,73360.8,-3.91,-42.83,-43.01,0,*50
1485266634.5,13418,12.0,73362.3,-3.91,-43.01,-43.09,0,*5C
1485266635.76,13419,12.0,73362.3,-3.91,-43.21,-43.29,0,*5D
1485266637.01,13420,12.0,73360.0,-3.91,-43.21,-43.09,0,*55
1485266638.25,13421,12.0,73362.5,-3.91,-43.01,-43.09,0,*56
1485266639.54,13422,12.0,73358.8,-3.89,-42.83,-42.83,0,*54
1485266640.78,13423,12.0,73362.3,-3.89,-42.89,-43.01,0,*54
1485266642.02,13424,12.0,73360.3,-3.89,-43.01,-43.01,0,*52
1485266643.26,13425,12.0,73362.3,-3.87,-42.95,-43.01,0,*51
1485266644.52,13426,12.0,73360.8,-3.89,-43.81,-43.87,0,*56
1485266645.78,13427,12.0,73360.8,-3.89,-44.13,-44.27,0,*56
1485266647.07,13428,12.0,73358.8,-3.89,-44.73,-44.73,0,*5E
1485266648.33,13429,12.0,73360.5,-3.89,-45.13,-45.27,0,*58
1485266649.6,13430,12.0,73358.0,-3.91,-45.07,-45.27,0,*5C
1485266650.83,13431,12.0,73360.5,-3.93,-45.41,-45.61,0,*5F
1485266652.04,13432,12.0,73358.8,-3.95,-45.61,-45.87,0,*50
1485266653.25,13433,12.0,73358.8,-3.95,-45.67,-45.67,0,*59
1485266654.46,13434,12.0,73358.0,-3.95,-45.33,-45.61,0,*59
1485266655.72,13435,12.0,73364.0,-3.97,-44.67,-44.87,0,*53
1485266656.99,13436,12.0,73358.0,-3.97,-44.47,-44.61,0,*5A
1485266658.23,13437,12.0,73360.8,-3.97,-44.07,-44.27,0,*5D
1485266659.49,13438,12.0,73358.3,-3.97,-44.27,-44.47,0,*56
1485266660.71,13439,12.0,73356.8,-3.99,-44.61,-44.87,0,*57
1485266661.96,13440,12.0,73356.5,-3.99,-44.21,-44.27,0,*57
1485266663.2,13441,12.0,73356.5,-3.99,-44.21,-44.27,0,*56
1485266664.44,13442,12.0,73358.0,-3.99,-43.95,-43.81,0,*56
1485266665.67,13443,12.0,73356.8,-3.99,-43.75,-43.81,0,*59
1485266666.92,13444,12.0,73358.5,-3.99,-43.41,-43.55,0,*50
1485266668.13,13445,12.0,73356.0,-3.99,-43.15,-43.15,0,*54
1485266669.37,13446,12.0,73362.0,-3.99,-43.15,-43.21,0,*50
1485266670.61,13447,12.0,73358.5,-3.97,-43.61,-43.75,0,*5D
1485266671.84,13448,12.0,73356.8,-3.99,-43.41,-43.41,0,*59
1485266673.1,13449,12.0,73360.5,-3.97,-43.55,-43.61,0,*51
1485266674.35,13450,12.0,73360.5,-3.97,-43.95,-43.95,0,*5E
1485266675.59,13451,12.0,73360.5,-3.97,-43.95,-44.07,0,*53
1485266676.83,13452,12.0,73356.8,-3.97,-44.61,-44.87,0,*54
1485266678.13,13453,12.0,73358.8,-3.97,-45.07,-45.27,0,*5F
1485266679.34,13454,12.0,73358.3,-3.99,-44.99,-44.99,0,*54
1485266680.64,13455,12.0,73362.8,-4.01,-44.73,-44.73,0,*53
1485266681.88,13456,12.0,73360.8,-3.99,-44.07,-44.21,0,*52
1485266683.12,13457,12.0,73356.3,-3.99,-43.61,-43.81,0,*59
1485266684.39,13458,12.0,73362.5,-3.99,-44.01,-44.21,0,*5A
1485266685.62,13459,12.0,73362.0,-4.01,-44.07,-44.07,0,*5F
1485266686.84,13460,12.0,73360.0,-3.99,-43.95,-43.95,0,*53
1485266688.08,13461,12.0,73358.5,-4.01,-43.41,-43.49,0,*5C
1485266689.3,13462,12.0,73360.3,-3.99,-43.41,-43.61,0,*53
1485266690.56,13463,12.0,73358.5,-4.01,-43.81,-43.87,0,*50
1485266691.83,13464,12.0,73360.3,-3.99,-44.01,-44.01,0,*57
1485266693.09,13465,12.0,73360.3,-4.01,-43.61,-43.81,0,*5E
1485266694.32,13466,12.0,73362.0,-3.99,-43.15,-43.21,0,*52
1485266695.54,13467,12.0,73358.3,-3.99,-43.15,-43.01,0,*51
1485266696.77,13468,12.0,73360.0,-3.99,-43.15,-43.21,0,*5C
1485266698.02,13469,12.0,73358.0,-3.99,-42.95,-43.01,0,*56
1485266699.23,13470,12.0,73362.8,-3.99,-43.15,-43.15,0,*52
1485266700.5,13471,12.0,73360.5,-3.97,-43.35,-43.55,0,*5B
1485266701.76,13472,12.0,73364.3,-3.97,-43.21,-43.35,0,*5B
1485266703.01,13473,12.0,73358.0,-3.95,-43.41,-43.55,0,*58
1485266704.25,13474,12.0,73360.5,-3.95,-43.29,-43.35,0,*57
1485266705.49,13475,12.0,73362.8,-3.97,-43.35,-43.41,0,*5A
1485266706.73,13476,12.0,73360.3,-3.95,-43.09,-43.15,0,*55
1485266707.96,13477,12.0,73362.3,-3.95,-43.15,-43.29,0,*56
1485266709.2,13478,12.0,73362.3,-3.95,-43.29,-43.35,0,*5B
1485266710.49,13479,12.0,73362.3,-3.93,-43.55,-43.67,0,*50
1485266711.75,13480,12.0,73360.3,-3.95,-43.55,-43.55,0,*51
1485266712.99,13481,12.0,73362.8,-3.95,-43.29,-43.35,0,*5D
1485266714.26,13482,12.0,73362.5,-3.95,-43.67,-43.67,0,*53
1485266715.52,13483,12.0,73360.5,-3.95,-43.67,-43.67,0,*52
1485266716.79,13484,12.0,73362.5,-3.95,-43.55,-43.67,0,*54
1485266718.08,13485,12.0,73360.8,-3.93,-44.21,-44.33,0,*51
1485266719.33,13486,12.0,73358.5,-3.95,-44.01,-44.01,0,*57
1485266720.6,13487,12.0,73360.0,-3.95,-43.67,-43.67,0,*56
1485266721.9,13488,12.0,73362.5,-3.97,-44.21,-44.21,0,*5B
1485266723.16,13489,12.0,73362.8,-3.95,-44.13,-44.21,0,*59
1485266724.4,13490,12.0,73360.0,-3.97,-44.27,-44.41,0,*52
1485266725.69,13491,12.0,73360.0,-3.97,-44.47,-44.47,0,*53
1485266726.96,13492,12.0,73362.3,-3.97,-44.21,-44.27,0,*56
1485266728.23,13493,12.0,73364.5,-3.97,-44.21,-44.27,0,*57
1485266729.5,13494,12.0,73364.5,-3.97,-44.01,-44.07,0,*50
1485266730.77,13495,12.0,73360.3,-3.97,-44.21,-44.27,0,*51
1485266732.03,13496,12.0,73362.8,-4.01,-44.13,-44.27,0,*5B
1485266733.29,13497,12.0,73362.8,-3.99,-44.01,-44.01,0,*5B
1485266734.54,13498,12.0,73362.3,-3.99,-43.41,-43.55,0,*51
1485266735.78,13499,12.0,73362.0,-3.99,-43.95,-44.01,0,*5F
1485266737.02,13500,12.0,73360.8,-3.99,-44.01,-44.07,0,*52
1485266738.25,13501,12.0,73364.3,-3.99,-44.53,-44.67,0,*52
1485266739.51,13502,12.0,73358.8,-4.01,-44.33,-44.53,0,*56
1485266740.79,13503,12.0,73358.5,-4.01,-44.47,-44.67,0,*53
1485266742.08,13504,12.0,73360.8,-4.01,-44.67,-44.73,0,*53
1485266743.34,13505,12.0,73360.8,-4.01,-44.67,-44.87,0,*59
1485266744.58,13506,12.0,73360.0,-3.99,-44.27,-44.47,0,*54
1485266745.86,13507,12.0,73356.8,-4.01,-44.47,-44.67,0,*57
1485266747.1,13508,12.0,73356.5,-4.03,-44.27,-44.33,0,*5D
1485266748.32,13509,12.0,73358.5,-4.03,-43.41,-43.49,0,*51
1485266749.56,13510,12.0,73356.0,-4.03,-43.29,-43.41,0,*5F
1485266750.81,13511,12.0,73354.8,-4.03,-43.67,-43.81,0,*58
1485266752.06,13512,12.0,73356.3,-4.03,-43.49,-43.67,0,*5F
1485266753.32,13513,12.0,73358.0,-4.01,-44.07,-44.13,0,*55
1485266754.58,13514,12.0,73356.8,-3.99,-44.01,-44.01,0,*51
1485266755.82,13515,12.0,73356.5,-4.01,-44.07,-44.07,0,*56
1485266757.08,13516,12.0,73356.0,-4.01,-44.07,-44.13,0,*50
1485266758.32,13517,12.0,73358.8,-4.01,-44.53,-44.53,0,*54
1485266759.55,13518,12.0,73358.0,-4.01,-44.07,-44.07,0,*5B
1485266760.79,13519,12.0,73358.5,-4.03,-44.13,-44.27,0,*5F
1485266762.03,13520,12.0,73358.8,-4.03,-44.27,-44.33,0,*57
1485266763.29,13521,12.0,73360.0,-4.03,-44.13,-44.33,0,*51
1485266764.5,13522,12.0,73360.0,-4.05,-44.41,-44.53,0,*55
1485266765.74,13523,12.0,73356.3,-4.03,-44.87,-45.07,0,*58
1485266766.96,13524,12.0,73360.5,-4.05,-44.79,-44.79,0,*50
1485266768.21,13525,12.0,73360.3,-4.05,-44.53,-44.73,0,*53
1485266769.42,13526,12.0,73360.0,-4.09,-44.99,-45.21,0,*5C
1485266770.65,13527,12.0,73358.0,-4.09,-45.41,-45.47,0,*59
1485266771.89,13528,12.0,73356.5,-4.11,-45.21,-45.41,0,*5F
1485266773.12,13529,12.0,73360.8,-4.11,-45.61,-45.67,0,*5E
1485266774.41,13530,12.0,73362.8,-4.11,-45.07,-45.27,0,*52
1485266775.66,13531,12.0,73360.5,-4.11,-44.87,-45.21,0,*5C
1485266776.89,13532,12.0,73354.3,-4.13,-44.87,-45.21,0,*5D
1485266778.17,13533,12.0,73358.0,-4.15,-44.47,-44.67,0,*55
1485266779.46,13534,12.0,73356.5,-4.15,-44.33,-44.33,0,*50
1485266780.69,13535,12.0,73358.5,-4.15,-43.87,-43.87,0,*51
1485266781.95,13536,12.0,73358.3,-4.15,-43.87,-44.01,0,*5B
1485266783.19,13537,12.0,73358.5,-4.15,-44.07,-44.07,0,*53
1485266784.48,13538,12.0,73358.3,-4.15,-44.01,-44.01,0,*5C
1485266785.75,13539,12.0,73358.5,-4.15,-44.07,-44.21,0,*59
1485266787.02,13540,12.0,73356.3,-4.15,-44.21,-44.41,0,*55
1485266788.28,13541,12.0,73358.5,-4.15,-44.27,-44.33,0,*57
1485266789.55,13542,12.0,73358.8,-4.15,-44.27,-44.33,0,*54
1485266790.82,13543,12.0,73360.8,-4.15,-44.53,-44.73,0,*52
1485266792.1,13544,12.0,73358.8,-4.15,-44.33,-44.47,0,*54
1485266793.36,13545,12.0,73358.8,-4.15,-44.53,-44.67,0,*51
1485266794.62,13546,12.0,73358.5,-4.17,-44.67,-44.67,0,*57
1485266795.89,13547,12.0,73360.0,-4.19,-44.53,-44.73,0,*5A
1485266797.14,13548,12.0,73356.8,-4.17,-44.33,-44.47,0,*5A
1485266798.38,13549,12.0,73354.3,-4.17,-44.47,-44.53,0,*5D
1485266799.61,13550,12.0,73358.8,-4.17,-44.33,-44.53,0,*56
1485266800.85,13551,12.0,73356.3,-4.17,-44.47,-44.53,0,*54
1485266802.11,13552,12.0,73358.0,-4.17,-44.33,-44.67,0,*53
1485266803.37,13553,12.0,73362.3,-4.17,-44.47,-44.47,0,*53
1485266804.6,13554,12.0,73356.8,-4.17,-44.47,-44.53,0,*51
1485266805.84,13555,12.0,73356.8,-4.17,-44.53,-44.73,0,*57
1485266807.09,13556,12.0,73358.8,-4.19,-45.21,-45.41,0,*5E
1485266808.34,13557,12.0,73360.0,-4.21,-45.27,-45.61,0,*50
1485266809.62,13558,12.0,73356.5,-4.21,-45.27,-45.47,0,*5B
1485266810.88,13559,12.0,73358.3,-4.23,-45.07,-45.41,0,*5C
1485266812.14,13560,12.0,73356.0,-4.23,-44.67,-44.79,0,*5B
1485266813.37,13561,12.0,73360.5,-4.23,-44.41,-44.41,0,*55
1485266814.63,13562,12.0,73356.0,-4.23,-44.41,-44.47,0,*50
1485266815.88,13563,12.06,73362.5,-4.21,-44.47,-44.67,0,*57
1485266817.14,13564,12.0,73356.5,-4.23,-44.33,-44.41,0,*55
1485266818.39,13565,12.06,73358.3,-4.23,-44.79,-44.87,0,*50
1485266819.66,13566,12.0,73358.3,-4.23,-45.27,-45.41,0,*52
1485266820.9,13567,12.0,73358.5,-4.27,-44.27,-44.27,0,*57
1485266822.12,13568,12.0,73358.0,-4.25,-44.27,-44.27,0,*5A
1485266823.39,13569,12.0,73354.8,-4.25,-44.21,-44.21,0,*5B
1485266824.64,13570,12.0,73358.5,-4.25,-44.21,-44.27,0,*55
1485266825.89,13571,12.0,73356.0,-4.25,-44.47,-44.47,0,*52
1485266827.16,13572,12.0,73356.8,-4.25,-44.01,-44.21,0,*53
1485266828.39,13573,12.0,73358.8,-4.25,-44.47,-44.53,0,*55
1485266829.63,13574,12.0,73358.8,-4.25,-43.87,-44.21,0,*5C
1485266830.84,13575,12.0,73354.8,-4.25,-43.49,-43.87,0,*54
1485266832.08,13576,12.0,73358.3,-4.27,-43.87,-44.07,0,*58
1485266833.37,13577,12.06,73358.8,-4.27,-43.67,-43.67,0,*56
1485266834.59,13578,12.0,73358.5,-4.25,-43.41,-43.49,0,*53
1485266835.8,13579,12.0,73358.0,-4.25,-43.41,-43.49,0,*52
1485266837.04,13580,12.0,73358.8,-4.23,-43.35,-43.35,0,*5A
1485266838.28,13581,12.0,73358.0,-4.23,-43.15,-43.35,0,*59
1485266839.54,13582,12.0,73356.0,-4.23,-43.15,-43.21,0,*5F
1485266840.82,13583,12.0,73354.5,-4.23,-43.21,-43.21,0,*59
1485266842.1,13584,12.0,73354.8,-4.23,-43.21,-43.21,0,*5E
1485266843.34,13585,12.0,73356.5,-4.23,-43.15,-43.15,0,*5F
1485266844.6,13586,12.0,73354.3,-4.21,-43.21,-43.21,0,*5E
1485266845.87,13587,12.0,73352.3,-4.19,-43.29,-43.35,0,*59
1485266847.16,13588,12.0,73358.5,-4.19,-43.09,-43.09,0,*5B
1485266848.4,13589,12.0,73356.3,-4.19,-43.15,-43.35,0,*58
1485266849.64,13590,12.0,73352.3,-4.19,-43.15,-43.49,0,*5B
1485266850.88,13591,12.0,73356.8,-4.19,-43.15,-43.35,0,*51
1485266852.15,13592,12.06,73356.0,-4.19,-43.29,-43.49,0,*56
1485266853.42,13593,12.0,73356.8,-4.19,-43.49,-43.67,0,*5D
1485266854.69,13594,12.0,73358.5,-4.19,-43.29,-43.49,0,*50
1485266855.92,13595,12.0,73354.8,-4.19,-43.35,-43.49,0,*5C
1485266857.19,13596,12.0,73352.8,-4.17,-43.29,-43.29,0,*5A
1485266858.48,13597,12.0,73354.3,-4.19,-43.29,-43.55,0,*5E
1485266859.75,13598,12.0,73352.8,-4.17,-43.09,-43.09,0,*54
1485266861.02,13599,12.0,73358.0,-4.17,-43.09,-43.21,0,*5F
1485266862.26,13600,12.06,73358.3,-4.19,-43.15,-43.15,0,*58
1485266863.51,13601,12.0,73356.0,-4.19,-43.01,-43.01,0,*59
1485266864.78,13602,12.0,73354.5,-4.17,-42.95,-42.95,0,*54
1485266866.05,13603,12.06,73356.3,-4.17,-43.09,-43.21,0,*5F
1485266867.3,13604,12.0,73356.0,-4.17,-43.01,-43.09,0,*5A
1485266868.52,13605,12.0,73358.0,-4.17,-43.01,-43.01,0,*53
1485266869.8,13606,12.0,73356.0,-4.17,-42.95,-42.95,0,*50
1485266871.07,13607,12.0,73356.8,-4.15,-43.01,-43.09,0,*5B
1485266872.37,13608,12.0,73356.0,-4.15,-43.09,-43.09,0,*5C
1485266873.63,13609,12.0,73354.8,-4.15,-43.21,-43.41,0,*5B
1485266874.85,13610,12.0,73358.5,-4.13,-43.15,-43.15,0,*53
1485266876.12,13611,12.0,73354.5,-4.15,-42.89,-42.95,0,*59
1485266877.34,13612,12.0,73356.3,-4.13,-43.01,-43.15,0,*54
1485266878.59,13613,12.06,73358.3,-4.13,-42.95,-42.89,0,*5D
1485266879.83,13614,12.0,73354.5,-4.13,-43.15,-43.21,0,*50
1485266881.04,13615,12.0,73356.8,-4.13,-43.15,-43.15,0,*56
1485266882.31,13616,12.0,73356.5,-4.15,-42.95,-43.01,0,*5F
1485266883.56,13617,12.06,73358.0,-4.13,-42.89,-42.95,0,*59
1485266884.78,13618,12.06,73360.0,-4.13,-43.01,-43.15,0,*5E
1485266886.03,13619,12.0,73356.5,-4.13,-43.55,-43.61,0,*5D
1485266887.3,13620,12.0,73356.3,-4.15,-43.61,-43.67,0,*50
1485266888.55,13621,12.0,73358.0,-4.15,-43.61,-43.75,0,*52
1485266889.76,13622,12.0,73356.0,-4.13,-43.35,-43.41,0,*51
1485266891.0,13623,12.0,73356.0,-4.13,-43.15,-43.21,0,*54
1485266892.23,13624,12.0,73354.8,-4.13,-43.01,-43.15,0,*51
1485266893.44,13625,12.06,73362.0,-4.13,-43.15,-43.15,0,*55
1485266894.67,13626,12.06,73360.0,-4.13,-43.01,-43.15,0,*53
1485266895.91,13627,12.0,73358.3,-4.09,-42.89,-42.95,0,*51
1485266897.15,13628,12.0,73358.8,-4.11,-43.01,-43.01,0,*5A
1485266898.37,13629,12.0,73358.8,-4.09,-43.01,-43.41,0,*56
1485266899.63,13630,12.0,73356.0,-4.11,-43.21,-43.35,0,*56
1485266900.87,13631,12.06,73362.8,-4.11,-43.15,-43.15,0,*52
1485266902.1,13632,12.06,73362.3,-4.11,-43.15,-43.15,0,*51
1485266903.32,13633,12.0,73358.8,-4.09,-43.01,-43.15,0,*5C
1485266904.55,13634,12.06,73362.0,-4.09,-43.15,-43.21,0,*59
1485266905.76,13635,12.0,73356.5,-4.09,-42.89,-42.89,0,*5F
1485266906.97,13636,12.06,73362.0,-4.09,-42.75,-42.89,0,*5F